Location: Sternwarte Hubelmatt
(47.0367°N, 8.3053°E)
Time: 03:15:23
(UTC+02:00)

UWE-3 - Pass Details

Date: 29 April 2024
Orbit: 569 x 652 km, 97.8° (Epoch: 23 May)

Event Time Altitude Azimuth Distance (km) Brightness Sun altitude
Rises 03:04:36 0° 26° (NNE) 2,887 ? -24.4°
Reaches altitude 10° 03:07:13 10° 43° (NE) 1,993 ? -24.2°
Maximum altitude 03:10:34 21° 93° (E) 1,404 ? -23.9°
Enters shadow 03:12:16 17° 124° (SE) 1,588 ? -23.8°
